Date String (YYYY-MM-DD hh:mm:ss) UTC,Instrument flags,Ambient pressure (hPa),Sample flow (lpm),Bypass flow (lpm),Sample temperature (°C),Ambient temperature (°C),ASC tube jacket temperature (°C),LED temperature (°C),Box temperature (°C),Sample RH (%),Span deviation,Mass concentration (μg/m³),Mass concentration (μg/m³),Mass concentration (μg/m³)
DateTimeUTC,F1_M11,P_M11,Q1_M11,Q2_M11,T1_M11,T2_M11,T3_M11,T4_M11,T5_M11,U1_M11,ZSPAN_M11,X0_M11,X2_M11,X1_M11
2021-10-17 14:00:00,,0830.8,4.98,0.00,26.9,25.9,00.0,35.9,28.7,10.4,0000.0,0007.45,0003.69,0003.17
2021-10-17 14:01:00,,0830.9,5.02,0.00,26.9,25.9,00.0,35.9,28.7,10.3,0000.0,0007.67,0003.71,0003.17
2021-10-17 14:02:00,,0830.9,4.99,0.00,26.9,25.9,00.0,35.9,28.7,10.3,0000.0,0008.18,0003.69,0003.15
2021-10-17 14:03:00,,0830.9,5.00,0.00,26.9,25.9,00.0,35.9,28.7,10.3,0000.0,0008.28,0003.72,0003.14
2021-10-17 14:04:00,,0830.9,4.99,0.00,26.9,25.9,00.0,36.0,28.7,10.2,0000.0,0008.75,0003.73,0003.12
2021-10-17 14:05:00,,0830.9,5.01,0.00,26.9,25.9,00.0,36.0,28.7,10.2,0000.0,0008.74,0003.68,0003.06
2021-10-17 14:06:00,,0830.9,5.00,0.00,26.9,25.9,00.0,36.0,28.7,10.3,0000.0,0008.79,0003.68,0003.02
2021-10-17 14:07:00,,0830.8,5.00,0.00,26.9,25.9,00.0,36.0,28.7,10.3,0000.0,0008.89,0003.70,0003.01
2021-10-17 14:08:00,,0830.8,5.02,0.00,26.9,25.9,00.0,36.0,28.7,10.3,0000.0,0009.45,0003.72,0003.03
2021-10-17 14:09:00,,0830.8,4.99,0.00,26.9,25.9,00.0,36.0,28.7,10.2,0000.0,0009.44,0003.70,0003.03
2021-10-17 14:10:00,,0830.8,5.02,0.00,26.9,26.0,00.0,36.0,28.7,10.2,0000.0,0009.41,0003.68,0003.01
2021-10-17 14:11:00,,0830.7,4.99,0.00,26.9,26.0,00.0,36.0,28.8,10.2,0000.0,0009.42,0003.68,0003.01
2021-10-17 14:12:00,,0830.8,5.02,0.00,26.9,26.0,00.0,36.0,28.8,10.2,0000.0,0009.28,0003.62,0002.98
2021-10-17 14:13:00,,0830.8,5.00,0.00,27.0,26.0,00.0,36.0,28.8,10.2,0000.0,0008.23,0003.63,0002.99
2021-10-17 14:14:00,,0830.8,4.99,0.00,27.0,26.0,00.0,36.0,28.8,10.2,0000.0,0008.80,0003.63,0002.99
2021-10-17 14:15:00,,0830.7,5.00,0.00,27.0,26.1,00.0,36.0,28.8,10.2,0000.0,0008.43,0003.62,0003.00
2021-10-17 14:16:00,,0830.8,5.01,0.00,27.0,26.1,00.0,36.0,28.8,10.1,0000.0,0008.53,0003.62,0003.02
2021-10-17 14:17:00,,0830.8,4.98,0.00,27.0,26.1,00.0,36.0,28.8,10.2,0000.0,0008.45,0003.57,0003.00
2021-10-17 14:18:00,,0830.8,5.01,0.00,27.0,26.1,00.0,36.0,28.8,10.5,0000.0,0008.34,0003.53,0002.98
2021-10-17 14:19:00,,0830.7,4.99,0.00,27.0,26.1,00.0,36.0,28.8,10.2,0000.0,0007.80,0003.50,0002.96
2021-10-17 14:20:00,,0830.8,5.00,0.00,27.0,26.1,00.0,36.1,28.9,10.2,0000.0,0008.74,0003.51,0002.94
2021-10-17 14:21:00,,0830.8,5.01,0.00,27.1,26.1,00.0,36.1,28.9,10.2,0000.0,0008.74,0003.51,0002.95
2021-10-17 14:22:00,,0830.8,5.00,0.00,27.1,26.1,00.0,36.1,28.9,10.2,0000.0,0008.70,0003.51,0002.96
2021-10-17 14:23:00,,0830.8,4.99,0.00,27.1,26.2,00.0,36.1,28.9,10.3,0000.0,0008.85,0003.57,0003.00
2021-10-17 14:24:00,,0830.9,5.00,0.00,27.1,26.2,00.0,36.1,28.9,10.6,0000.0,0008.94,0003.59,0003.01
2021-10-17 14:25:00,,0830.9,5.00,0.00,27.1,26.2,00.0,36.1,29.0,10.5,0000.0,0008.14,0003.57,0003.02
2021-10-17 14:26:00,,0830.9,4.99,0.00,27.1,26.2,00.0,36.1,29.0,10.7,0000.0,0008.15,0003.56,0003.03
2021-10-17 14:27:00,,0830.9,5.00,0.00,27.1,26.2,00.0,36.1,29.0,10.9,0000.0,0008.19,0003.56,0003.02
2021-10-17 14:28:00,,0830.9,4.99,0.00,27.2,26.3,00.0,36.1,29.0,10.9,0000.0,0008.22,0003.59,0003.03
2021-10-17 14:29:00,,0830.9,4.99,0.00,27.2,26.3,00.0,36.2,29.0,11.0,0000.0,0008.32,0003.62,0003.07
2021-10-17 14:30:00,,0830.9,5.00,0.00,27.2,26.3,00.0,36.2,29.0,11.1,0000.0,0008.58,0003.70,0003.09
2021-10-17 14:31:00,,0830.9,5.00,0.00,27.2,26.3,00.0,36.2,29.0,11.1,0000.0,0007.79,0003.70,0003.09
2021-10-17 14:32:00,,0830.9,4.99,0.00,27.2,26.3,00.0,36.2,29.1,10.8,0000.0,0007.96,0003.73,0003.12
2021-10-17 14:33:00,,0830.9,5.00,0.00,27.2,26.3,00.0,36.2,29.1,10.6,0000.0,0008.04,0003.75,0003.16
2021-10-17 14:34:00,,0830.9,5.00,0.00,27.2,26.4,00.0,36.2,29.1,10.7,0000.0,0008.16,0003.74,0003.18
2021-10-17 14:35:00,,0830.9,5.00,0.00,27.3,26.4,00.0,36.2,29.1,10.7,0000.0,0008.39,0003.73,0003.21
2021-10-17 14:36:00,,0830.9,5.00,0.00,27.3,26.4,00.0,36.2,29.1,10.8,0000.0,0008.40,0003.75,0003.23
2021-10-17 14:37:00,,0830.9,5.01,0.00,27.3,26.4,00.0,36.3,29.1,10.9,0000.0,0008.27,0003.79,0003.24
2021-10-17 14:38:00,,0830.9,5.00,0.00,27.3,26.5,00.0,36.3,29.2,11.3,0000.0,0008.32,0003.83,0003.26
2021-10-17 14:39:00,,0830.9,5.01,0.00,27.3,26.5,00.0,36.3,29.2,11.7,0000.0,0008.40,0003.85,0003.26
2021-10-17 14:40:00,,0831.0,5.01,0.00,27.3,26.5,00.0,36.3,29.2,11.5,0000.0,0008.63,0003.84,0003.26
2021-10-17 14:41:00,,0830.9,4.99,0.00,27.3,26.5,00.0,36.3,29.2,11.6,0000.0,0009.00,0003.78,0003.25
2021-10-17 14:42:00,,0831.0,5.01,0.00,27.4,26.5,00.0,36.3,29.2,11.5,0000.0,0008.94,0003.75,0003.25
2021-10-17 14:43:00,,0830.9,5.00,0.00,27.4,26.6,00.0,36.3,29.3,11.7,0000.0,0009.17,0003.77,0003.22
2021-10-17 14:44:00,,0830.9,4.99,0.00,27.4,26.6,00.0,36.4,29.3,11.6,0000.0,0009.96,0003.75,0003.18
2021-10-17 14:45:00,,0831.0,4.99,0.00,27.4,26.6,00.0,36.4,29.3,11.8,0000.0,0009.95,0003.73,0003.14
2021-10-17 14:46:00,,0831.0,5.00,0.00,27.4,26.6,00.0,36.4,29.3,11.6,0000.0,0009.63,0003.70,0003.07
2021-10-17 14:47:00,,0830.9,5.00,0.00,27.4,26.6,00.0,36.4,29.3,11.3,0000.0,0009.67,0003.69,0003.01
2021-10-17 14:48:00,,0830.9,5.00,0.00,27.5,26.6,00.0,36.4,29.3,11.3,0000.0,0009.62,0003.66,0002.97
2021-10-17 14:49:00,,0830.9,5.00,0.00,27.5,26.7,00.0,36.4,29.3,10.9,0000.0,0009.44,0003.64,0002.95
2021-10-17 14:50:00,,0830.9,5.00,0.00,27.5,26.7,00.0,36.4,29.4,11.0,0000.0,0009.60,0003.64,0002.98
2021-10-17 14:51:00,,0830.9,5.00,0.00,27.5,26.7,00.0,36.5,29.4,11.1,0000.0,0009.48,0003.67,0003.02
2021-10-17 14:52:00,,0830.9,5.00,0.00,27.5,26.7,00.0,36.5,29.4,11.0,0000.0,0008.95,0003.71,0003.07
2021-10-17 14:53:00,,0830.9,5.01,0.00,27.5,26.7,00.0,36.5,29.4,11.0,0000.0,0008.95,0003.77,0003.12
2021-10-17 14:54:00,,0830.9,5.01,0.00,27.5,26.7,00.0,36.5,29.4,11.1,0000.0,0008.91,0003.76,0003.15
2021-10-17 14:55:00,,0831.0,4.99,0.00,27.6,26.7,00.0,36.5,29.4,11.3,0000.0,0007.98,0003.73,0003.17
2021-10-17 14:56:00,,0830.9,4.99,0.00,27.6,26.8,00.0,36.5,29.4,11.4,0000.0,0008.47,0003.75,0003.18
2021-10-17 14:57:00,,0830.9,5.00,0.00,27.6,26.8,00.0,36.6,29.5,11.4,0000.0,0009.55,0003.80,0003.20
2021-10-17 14:58:00,,0830.9,5.00,0.00,27.6,26.8,00.0,36.6,29.5,11.3,0000.0,0009.73,0003.81,0003.23
2021-10-17 14:59:00,,0830.9,4.99,0.00,27.6,26.8,00.0,36.6,29.5,11.3,0000.0,0009.83,0003.82,0003.25
